Purchase, NY

6:48 PM EDT on July 28, 2016 (GMT -0400)
Westchester County

Weather History for KHPN - May, 2013

Change the Weather History Date:

Thursday, May 23, 2013

  Actual Average Record
Temperature  
Mean Temperature 69 °F -  
Max Temperature 77 °F 66 °F 87 °F (1992)
Min Temperature 63 °F 48 °F 41 °F (2002)
Cooling Degree Days 4    
Growing Degree Days 19 (Base 50)    
Moisture  
Dew Point 64 °F    
Average Humidity 90    
Maximum Humidity 97    
Minimum Humidity 73    
Precipitation  
Precipitation 1.42 in - - ()
Sea Level Pressure  
Sea Level Pressure 29.84 in    
Wind  
Wind Speed 6 mph (SSE)    
Max Wind Speed 16 mph    
Max Gust Speed 23 mph    
Visibility 3 miles    
Events Fog , Rain , Thunderstorm    
Averages and records for this station are not official NWS values.
T = Trace of Precipitation, MM = Missing Value Source: NWS Daily Summary

Daily Weather History Graph

Daily Weather History Graph

Search for Another Location

Airport or City:

Trip Planner

Search our weather history database for the weather conditions in past years. The results will help you decide how hot, cold, wet, or windy it might be!

Date:

Astronomy

May. 23, 2013 Rise Set
Actual Time 5:29 AM EDT 8:13 PM EDT
Civil Twilight 4:57 AM EDT 8:45 PM EDT
Nautical Twilight 4:17 AM EDT 9:26 PM EDT
Astronomical Twilight 3:31 AM EDT 10:12 PM EDT
Moon 6:42 PM EDT (5/23) 4:13 AM EDT (5/23)
Length of Visible Light 15h 48m
Length of Day
14h 43m
Waxing Gibbous, 97% of the Moon is Illuminated
May 23
Waxing Gibbous
May 25
Full
May 31
Last Quarter
Jun 8
New
Jun 16
First Quarter

Hourly Weather History & Observations

Time (EDT) Temp. Dew Point Humidity Pressure Visibility Wind Dir Wind Speed Gust Speed Precip Events Conditions
12:56 AM 66.0 °F 63.0 °F 90% 29.88 in 4.0 mi South 4.6 mph - N/A   Mostly Cloudy
1:56 AM 66.0 °F 63.0 °F 90% 29.86 in 4.0 mi SSE 3.5 mph - N/A   Mostly Cloudy
2:56 AM 63.0 °F 62.1 °F 97% 29.85 in 3.0 mi SSE 5.8 mph - N/A   Mostly Cloudy
3:56 AM 63.0 °F 61.0 °F 93% 29.85 in 2.5 mi SSE 3.5 mph - N/A   Overcast
4:56 AM 63.0 °F 62.1 °F 97% 29.85 in 2.5 mi SSE 3.5 mph - N/A   Overcast
5:56 AM 64.0 °F 62.1 °F 93% 29.86 in 1.0 mi SSE 3.5 mph - N/A   Overcast
6:56 AM 64.9 °F 63.0 °F 93% 29.88 in 1.5 mi South 4.6 mph - N/A   Mist
7:56 AM 66.0 °F 63.0 °F 90% 29.88 in 2.0 mi SSE 3.5 mph - N/A   Overcast
8:56 AM 66.9 °F 64.0 °F 90% 29.89 in 2.5 mi South 8.1 mph - N/A   Overcast
9:56 AM 70.0 °F 66.0 °F 87% 29.88 in 2.5 mi South 8.1 mph - N/A   Mostly Cloudy
10:27 AM 73.4 °F 66.2 °F 78% 29.89 in 5.0 mi SSE 6.9 mph - N/A   Haze
10:56 AM 73.9 °F 66.9 °F 79% 29.88 in 6.0 mi SSE 10.4 mph - N/A   Haze
11:56 AM 75.9 °F 66.9 °F 74% 29.86 in 9.0 mi SSE 16.1 mph 23.0 mph 0.00 in   Mostly Cloudy
12:23 PM 75.2 °F 66.2 °F 73% 29.87 in 9.0 mi South 12.7 mph 18.4 mph N/A Thunderstorm Thunderstorm
12:56 PM 73.0 °F 66.0 °F 79% 29.85 in 10.0 mi South 10.4 mph 17.3 mph 0.00 in Rain , Thunderstorm Light Thunderstorms and Rain
1:03 PM 73.4 °F 66.2 °F 78% 29.86 in 7.0 mi SSE 12.7 mph 18.4 mph 0.00 in Rain , Thunderstorm Light Thunderstorms and Rain
1:56 PM 70.0 °F 64.9 °F 84% 29.85 in 10.0 mi West 11.5 mph - 0.00 in Rain , Thunderstorm Light Thunderstorms and Rain
2:56 PM 72.0 °F 66.9 °F 84% 29.83 in 9.0 mi South 3.5 mph - 0.01 in Rain , Thunderstorm Light Thunderstorms and Rain
3:30 PM 69.8 °F 64.4 °F 83% 29.85 in 1.5 mi South 8.1 mph 16.1 mph 0.09 in Rain , Thunderstorm Light Thunderstorms and Rain
3:38 PM 68.0 °F 66.2 °F 94% 29.84 in 1.0 mi South 8.1 mph - 0.21 in Rain , Thunderstorm Light Thunderstorms and Rain
3:56 PM 66.9 °F 64.9 °F 93% 29.82 in 1.5 mi South 10.4 mph - 0.24 in Rain , Thunderstorm Light Thunderstorms and Rain
4:56 PM 64.9 °F 63.0 °F 93% 29.83 in 1.5 mi SSE 9.2 mph - 0.15 in Rain , Thunderstorm Light Thunderstorms and Rain
5:56 PM 64.9 °F 63.0 °F 93% 29.82 in 1.5 mi SSE 6.9 mph - 0.00 in Rain , Thunderstorm Light Thunderstorms and Rain
6:07 PM 64.4 °F 62.6 °F 94% 29.83 in 1.5 mi SSE 5.8 mph - 0.00 in   Overcast
6:47 PM 64.4 °F 62.6 °F 94% 29.83 in 1.5 mi South 9.2 mph - 0.01 in Rain , Thunderstorm Light Thunderstorms and Rain
6:56 PM 64.9 °F 63.0 °F 93% 29.81 in 1.0 mi SSE 4.6 mph - 0.16 in Rain , Thunderstorm Heavy Thunderstorms and Rain
6:58 PM 64.4 °F 62.6 °F 94% 29.81 in 0.5 mi SE 6.9 mph - 0.04 in Fog , Rain , Thunderstorm Heavy Thunderstorms and Rain
7:56 PM 64.9 °F 63.0 °F 93% 29.82 in 0.5 mi SE 3.5 mph - 0.83 in Fog , Rain , Thunderstorm Light Thunderstorms and Rain
7:59 PM 64.4 °F 62.6 °F 94% 29.82 in 1.5 mi SE 4.6 mph - 0.01 in Rain , Thunderstorm Light Thunderstorms and Rain
8:48 PM 64.4 °F 62.6 °F 94% 29.82 in 2.0 mi SSE 5.8 mph - 0.03 in   Overcast
8:56 PM 64.0 °F 63.0 °F 96% 29.81 in 2.0 mi SE 5.8 mph - 0.03 in   Overcast
9:56 PM 64.0 °F 62.1 °F 93% 29.80 in 0.8 mi SSE 9.2 mph - N/A   Mist
10:02 PM 64.4 °F 62.6 °F 94% 29.80 in 0.2 mi SSE 8.1 mph - N/A Fog Fog
10:56 PM 64.0 °F 62.1 °F 93% 29.78 in 0.8 mi Variable 5.8 mph - N/A   Overcast
11:56 PM 63.0 °F 62.1 °F 97% 29.76 in 0.2 mi South 8.1 mph - N/A Fog Fog